THORAD AGENA D DEB, 4741

Orbit data source: Space-Track

THORAD AGENA D DEB, 4741 is space debris in LEO originally from a launch on Wed, 08 Apr 1970 UTC launched from the Air Force Western Test Range (AFWTR). Debris objects in space refer to the collection of defunct objects orbiting the Earth. Examples of debris include non-operational satellites, rocket bodies, and fragments generated from explosions, collisions, or faulty payload assembly.

Loading next visibility...
Identifier
4741, 1970-025CQ
Orbit
LEO
Country
Flag of USUS
Related business
Manufacturer
Unknown
Mission
Spacecraft
Bus & Motor
Unknown
Mass
Unknown
Launch date (UTC)
1970-04-08 (56 years ago)
Launch vehicle
Unknown
Launch site
Air Force Western Test Range (AFWTR)
Object type
Payload
Rocket body
Debris
Shape & HBR
Unknown shape, 0.1 m
Radar Cross Section
Medium (>0.1 m² and <1 m²)

Expand to show TLE details & history
Last TLE update: 17 hours ago

TLE from 17 hours ago
0 THORAD AGENA D DEB
1 04741U 70025CQ  26208.22381036  .00000332  00000-0  19688-2 0  9995
2 04741 100.2948 292.0816 0787981 175.6340 214.1355 11.94717169453982
Epoch: 2026-07-27T05:22Z
TLE epoch observation values (Epoch: 2026-07-27T05:22:17.215Z)
Latitude
24.68099°
Longitude
-98.16737°
Altitude
2,248.914 km
Speed
6.569 km/s
True Right ascension
19h 09m 15s
True Declination
24° 34' 24"
Sunlit
Object was in partial shadow at epoch
Visualization orbit readout
Latitude
Unknown
Longitude
Unknown
Altitude
Unknown
Speed
Unknown
Apparent Right ascension
Unknown
Apparent Declination
Unknown
Sunlit
N/A
Visualization observer readout
Local Sidereal Time
11:23:42
Azimuth
Unknown
Elevation
Unknown
Doppler factor
Unknown
Orbital elements
Apogee altitude
2,338.828 km
Perigee altitude
1,065.41 km
Semi-major axis
8,080.256 km
Eccentricity
0.0788
Inclination
100.2948°
RAAN
292.0816°
Arg. of periapsis
175.634°
True anomaly
209.45665°
Mean anomaly
214.1355°
Eccentric anomaly
211.75914°
Mean motion
2.98817 °/min
Orbital period
120.48 mins
BSTAR
0.0019688
Loading maneuver chart data...
Computing Atmospheric mass density...

Documentation

Showing up to 5 results
|